User: anonymous   Login
Location: Irma
(52.9170°N, 111.2330°W)
Time: 16:34:43
(UTC-06:00)
Language:

Meteor 1-24 Rocket - Orbit

View from above orbital plane
View from above orbital plane
View from above satellite
View from above satellite

Ground track
Ground track

The orbit data is extracted from the following two-line orbital elements,

1  8800U 76032B   16120.80928610 -.00000018 +00000-0 -16282-4 0  9992
2  8800 081.2509 259.4639 0094490 275.7642 083.2762 14.10068420059727
Epoch (UTC): 29 April 2016 19:25:22
Eccentricity: 0.0094490
inclination: 81.2509°
perigee height: 791 km
apogee height: 927 km
right ascension of ascending node: 259.4639°
argument of perigee: 275.7642°
revolutions per day: 14.10068420
mean anomaly at epoch: 83.2762°
orbit number at epoch: 5972

The dashed part of the orbit path shows where the satellite is in the earth's shadow,  

DLR